Regional Weather Roundup
Issued by NWS

Home | Current Version | Previous Version | Text Only | Print | Product List | Glossary On
Versions: 1 2 3 4 5 6 7 8 9 10 11 12 13 14 15 16 17 18 19 20 21 22 23 24 25 26 27 28 29 30 31 32 33 34 35 36 37 38 39 40 41 42 43 44 45 46 47 48 49 50
000
ASUS43 KOAX 220902
RWRNE

WEATHER ROUNDUP FOR NEBRASKA
NATIONAL WEATHER SERVICE OMAHA NE
300 AM CST MON DEC 22 2014

NOTES: SATELLITE DATA IS BEING USED TO AUGMENT CLOUD COVER ABOVE
       12000 FEET.
       "FAIR" INDICATES FEW OR NO CLOUDS BELOW 12,000 FEET WITH NO
       SIGNIFICANT WEATHER AND/OR OBSTRUCTIONS TO VISIBILITY.

  * THESE STATIONS DO NOT REPORT WEATHER SUCH AS RAIN...SNOW OR FOG.

NEZ001>004-019>022-054>056-221000-
NEBRASKA PANHANDLE

CITY           SKY/WX    TMP DP  RH WIND       PRES   REMARKS
SCOTTSBLUFF    CLOUDY    37  28  70 W17       29.65R WCI  27
ALLIANCE       MOCLDY    31  26  82 W13       29.59R WCI  21
CHADRON        CLOUDY    37  31  78 NW20G29   29.59R WCI  27
SIDNEY         CLOUDY    35  27  72 NW15      29.63R WCI  25
$$

NEZ057>060-069>072-079>082-221000-
SOUTHWEST NEBRASKA

CITY           SKY/WX    TMP DP  RH WIND       PRES   REMARKS
NORTH PLATTE   MOCLDY    28  26  92 NW6       29.53R WCI  22
IMPERIAL       CLOUDY    40  29  64 NW16G26   29.57R WCI  31
MCCOOK         MOCLDY    36  32  85 NW9       29.53R WCI  29
$$

NEZ005>010-023>029-035>040-094-221000-
NORTH CENTRAL NEBRASKA

CITY           SKY/WX    TMP DP  RH WIND       PRES   REMARKS
VALENTINE      CLOUDY    39  36  89 NW14      29.49R FOG     WCI  31
AINSWORTH      CLOUDY    38  35  86 NW17G23   29.48R WCI  29
BROKEN BOW     PTCLDY    38  33  82 NW13      29.48S WCI  30
$$

NEZ041-046>049-061>064-073>077-083>087-221000-
SOUTH CENTRAL NEBRASKA

CITY           SKY/WX    TMP DP  RH WIND       PRES   REMARKS
GRAND ISLAND   CLOUDY    42  40  92 S13       29.52S
HASTINGS       CLOUDY    42  39  89 S8        29.50F
KEARNEY *      MOCLDY    37  36  93 S7        29.50F WCI  32
$$

NEZ011>018-030>034-042>045-221000-
NORTHEAST NEBRASKA

CITY           SKY/WX    TMP DP  RH WIND       PRES   REMARKS
NORFOLK        CLOUDY    43  40  89 S13       29.50F
BLAIR          RAIN      44  42  93 S16G22    29.57F
COLUMBUS *     CLOUDY    43  39  87 S10       29.54S
TEKAMAH        LGT RAIN  44  42  93 S14       29.57F
$$

NEZ050>053-065>068-078-088>093-221000-
SOUTHEAST NEBRASKA

CITY           SKY/WX    TMP DP  RH WIND       PRES   REMARKS
LINCOLN        LGT RAIN  43  42  97 S10       29.58S FOG
OMAHA EPPLEY   LGT RAIN  43  42  97 S18       29.60F FOG
FALLS CITY     CLOUDY    43  40  89 S12       29.63F
NEBRASKA CITY  DRIZZLE   42  42 100 S14       29.60F
$$

NEZ044-045-051>053-067-221000-
OMAHA AREA

CITY           SKY/WX    TMP DP  RH WIND       PRES   REMARKS
OMAHA EPPLEY   LGT RAIN  43  42  97 S18       29.60F FOG
BLAIR          RAIN      44  42  93 S16G22    29.57F
OFFUTT AFB     LGT RAIN  43  42  95 SE13      29.59F
WAHOO          LGT RAIN  43  41  91 S10       29.57S
$$



USA.gov is the U.S. government's official web portal to all federal, state and local government web resources and services.